Location: Unspecified
(47.2333°N, 39.7000°E)
Time: 05:50:34
(UTC+00:00)

ISS - Pass Details

Date: 10 March 2021
Orbit: 418 x 422 km, 51.6° (Epoch: 16 April)

Event Time Altitude Azimuth Distance (km) Brightness Sun altitude
Exits shadow 01:39:31 62° 94° (E) 475 -3.4 -21.7°
Drops below altitude 10° 01:42:23 10° 111° (ESE) 1,487 -0.3 -21.3°
Sets 01:44:30 0° 113° (ESE) 2,357 0.8 -20.9°
